Wind_Speed
21 22 23 24 25 25 25 26 26 27 28 28 29 29 29 29 29 29 30 29 29 29 29 30 30 31 31 31 32 33 34 35 35 36 36 36 36 35
21 22 24 24 25 25 24 25 26 26 27 28 29 29 28 28 28 29 29 29 29 30 30 29 30 30 31 31 31 32 34 35 35 35 35 36 37 36
22 23 24 25 24 25 25 25 25 26 27 27 28 28 28 28 28 28 29 29 29 29 30 30 30 30 31 31 31 32 33 34 35 36 35 36 37 37
22 22 23 24 24 25 25 25 25 26 27 27 27 27 28 28 28 28 28 28 29 29 30 30 30 31 32 32 32 32 33 34 35 36 36 37 37 37
21 22 23 24 24 25 25 26 26 26 27 26 26 26 27 27 28 28 28 28 28 29 29 29 30 31 32 32 32 32 33 34 35 36 37 38 38 38
21 22 22 23 24 25 25 26 27 27 27 26 26 26 27 27 27 27 28 28 28 27 28 29 30 30 31 32 32 33 33 33 35 37 38 38 38 38
21 22 22 23 25 25 26 27 27 27 27 27 26 25 25 26 26 27 28 27 27 27 27 28 29 30 31 32 31 32 33 34 35 36 37 38 38 39
21 21 23 24 25 25 25 26 26 27 27 26 25 25 25 25 26 27 27 28 28 27 28 29 29 29 30 31 31 31 33 33 33 35 36 37 39 40
20 21 22 23 23 23 24 25 25 25 25 25 25 26 26 27 27 27 28 28 28 28 28 28 29 30 31 32 32 33 34 34 33 34 35 37 38 39
20 20 21 21 21 22 23 24 24 24 24 24 25 25 25 26 26 26 27 28 29 29 29 29 29 30 32 33 33 33 34 35 35 34 35 36 37 38
20 20 20 21 21 21 22 23 24 23 24 24 24 24 24 24 25 26 26 26 27 28 29 29 29 29 30 30 31 32 33 33 34 34 35 35 36 36
19 20 21 21 21 22 22 23 23 23 24 24 24 24 24 24 24 24 24 24 25 26 27 27 27 28 29 29 29 30 32 32 33 33 33 34 34 35
19 20 20 20 21 22 22 22 22 23 23 23 24 23 23 23 23 24 24 24 24 25 26 26 27 27 28 28 28 28 29 30 31 32 32 32 33 34
19 20 19 20 21 21 21 21 21 21 22 22 21 22 22 22 23 23 24 24 24 24 25 25 25 25 26 26 26 26 27 28 29 30 31 31 32 32
19 20 21 21 21 20 20 21 21 21 20 20 20 21 21 22 22 22 22 23 23 23 22 23 23 23 23 23 24 25 26 26 27 29 30 31 32 33
20 21 21 21 20 20 20 20 20 20 19 19 19 19 20 20 20 20 21 21 21 20 20 21 21 21 22 22 23 24 25 26 27 28 29 30 31 32
20 20 20 21 21 20 20 20 19 19 18 18 18 19 19 19 20 20 19 19 19 19 20 20 20 20 21 21 22 23 24 25 26 27 28 29 29 30
20 20 20 20 20 20 19 19 18 18 17 18 18 18 19 18 18 18 18 18 19 19 19 19 19 20 20 20 20 21 23 23 24 25 26 28 28 28
21 20 20 20 19 19 18 17 17 17 17 17 17 17 17 17 17 17 17 18 18 18 18 18 18 18 18 19 19 20 21 21 22 23 24 25 27 28
21 20 20 19 18 18 18 17 17 17 18 17 17 17 16 17 17 17 17 17 17 17 17 17 17 17 18 19 19 19 20 20 21 22 23 24 24 25
20 20 20 20 19 19 18 18 17 17 17 17 17 17 17 16 17 17 17 17 16 16 16 16 17 17 18 18 18 19 19 19 19 20 21 22 22 23
20 20 20 20 19 19 19 18 18 18 17 17 16 16 16 16 16 16 16 16 15 15 16 16 17 17 17 17 17 17 18 18 17 18 18 19 20 21
19 20 20 19 19 19 19 18 17 17 17 16 16 16 16 15 16 15 15 14 14 14 15 16 16 17 16 16 16 16 16 16 16 16 17 17 18 19
Wind_Direction
271 271 272 272 271 268 269 270 271 272 272 272 272 270 267 264 262 261 260 262 263 262 261 261 259 257 255 254 254 252 249 246 246 245 244 243 243 244
273 275 274 272 271 271 272 273 274 275 274 274 273 270 267 263 262 261 260 261 261 261 261 260 259 258 256 255 253 252 249 247 246 245 244 243 243 243
275 275 274 273 274 273 272 274 277 278 279 279 275 271 267 265 264 264 263 262 261 260 260 260 260 258 256 255 254 251 250 248 247 246 245 245 244 243
277 276 275 273 274 274 274 275 278 280 281 281 278 273 268 266 264 265 265 264 262 261 261 260 260 258 257 256 255 253 251 249 247 246 246 246 246 244
280 279 278 276 275 275 276 278 279 281 283 282 278 275 271 268 266 265 265 264 263 263 262 261 260 259 258 257 256 255 252 250 247 246 246 246 246 246
283 282 281 278 278 278 278 279 280 281 281 280 279 276 273 270 269 266 265 264 262 262 262 261 261 260 258 257 257 255 253 251 249 247 246 247 247 247
285 283 281 281 280 280 281 280 280 281 282 280 278 277 275 272 270 267 264 261 260 262 262 261 261 260 259 258 256 255 254 252 250 248 247 247 247 247
290 286 284 284 283 282 282 282 282 283 284 282 278 277 275 274 272 268 266 264 263 263 263 262 261 260 259 259 256 255 254 252 251 250 249 248 248 249
293 290 288 288 286 286 285 286 285 285 284 282 278 277 276 276 274 270 268 268 266 263 263 263 261 259 259 257 256 256 255 252 251 251 251 249 250 250
296 294 293 292 290 290 289 289 288 287 285 284 281 280 280 278 275 274 272 270 270 266 264 264 262 261 260 258 257 256 254 252 251 252 252 252 250 251
301 298 297 296 293 291 290 289 289 289 289 287 285 284 280 279 278 275 272 271 270 268 268 267 265 263 261 260 258 257 256 255 253 253 252 252 251 251
306 302 299 298 296 293 293 293 293 290 290 290 287 284 281 280 280 278 275 274 273 270 270 270 268 266 264 264 262 260 259 259 256 254 253 252 253 253
311 308 303 301 299 297 296 296 295 293 291 290 289 286 284 282 282 280 277 276 276 275 274 274 272 270 267 264 264 262 260 259 257 256 253 254 255 254
314 312 309 306 304 301 299 299 298 296 294 292 291 288 286 286 285 283 281 280 280 279 277 275 273 271 268 265 265 263 261 259 257 255 255 255 256 257
316 316 314 311 308 305 304 303 302 300 296 294 294 292 289 287 286 285 283 282 281 280 279 278 275 273 270 268 266 265 263 261 259 257 257 258 258 258
317 318 317 314 310 309 309 307 304 303 299 297 297 296 293 290 289 288 286 284 282 281 280 278 277 277 275 272 269 266 264 262 260 258 257 258 260 260
319 319 319 317 314 313 313 310 307 304 302 300 299 298 296 292 289 288 287 284 282 282 281 279 278 278 278 276 273 270 267 265 262 260 259 260 261 262
321 322 321 320 317 315 314 311 309 306 304 302 301 301 300 297 292 288 287 285 283 283 283 282 280 280 280 280 278 275 273 271 268 265 263 262 262 263
321 321 321 321 319 316 312 309 309 309 307 307 306 304 301 300 296 292 289 286 284 283 284 284 283 281 280 279 277 277 276 274 272 269 266 264 264 264
322 322 321 320 318 317 315 310 308 308 306 305 305 304 302 299 298 295 293 291 289 286 285 286 286 284 284 283 281 280 280 278 275 273 269 267 266 265
320 321 322 322 320 318 317 314 309 308 306 305 305 306 304 302 301 300 298 297 293 289 287 286 287 287 287 287 287 285 284 282 279 277 274 270 268 266
324 323 323 323 322 320 320 318 315 313 311 308 307 307 306 305 304 302 300 298 297 294 290 288 286 286 287 288 289 288 287 287 285 283 280 276 272 271
327 326 326 325 325 324 323 322 320 318 315 312 309 306 306 305 305 302 301 300 299 299 296 292 289 287 286 287 288 289 291 291 289 286 284 281 277 274
Height
5734 5733 5733 5733 5733 5732 5732 5732 5732 5731 5730 5729 5727 5727 5726 5726 5727 5728 5729 5729 5730 5730 5731 5732 5733 5734 5736 5737 5739 5741 5743 5746 5749 5752 5755 5759 5762 5766
5727 5727 5726 5726 5725 5724 5724 5723 5723 5722 5721 5720 5718 5718 5717 5717 5718 5718 5719 5720 5721 5722 5722 5723 5724 5725 5726 5728 5730 5732 5734 5737 5739 5742 5746 5749 5753 5757
5720 5720 5719 5718 5717 5717 5716 5716 5715 5714 5713 5712 5710 5709 5708 5709 5709 5709 5710 5711 5711 5712 5713 5714 5715 5716 5717 5719 5720 5722 5725 5727 5730 5733 5736 5740 5743 5747
5713 5713 5712 5711 5710 5710 5709 5708 5707 5706 5704 5703 5701 5700 5700 5700 5700 5700 5701 5701 5702 5703 5703 5704 5705 5706 5708 5709 5711 5713 5715 5718 5721 5724 5727 5731 5734 5737
5707 5706 5705 5704 5704 5703 5702 5701 5699 5698 5696 5695 5693 5692 5692 5691 5691 5691 5692 5692 5693 5693 5694 5695 5696 5697 5699 5700 5702 5704 5706 5709 5711 5714 5717 5720 5724 5727
5700 5699 5698 5697 5696 5696 5695 5693 5691 5690 5688 5686 5685 5684 5684 5683 5682 5683 5683 5683 5684 5684 5685 5686 5687 5688 5689 5691 5693 5695 5697 5698 5701 5704 5707 5710 5713 5717
5694 5692 5691 5690 5689 5688 5687 5685 5684 5682 5680 5678 5677 5676 5676 5675 5675 5674 5675 5675 5675 5676 5676 5677 5679 5680 5680 5682 5683 5685 5687 5689 5691 5694 5697 5700 5703 5706
5688 5686 5685 5684 5682 5681 5679 5678 5676 5674 5672 5671 5670 5669 5668 5667 5667 5666 5667 5667 5667 5668 5668 5669 5669 5670 5671 5673 5674 5676 5677 5679 5681 5684 5687 5690 5693 5696
5682 5680 5679 5677 5675 5673 5672 5670 5668 5666 5664 5663 5662 5661 5660 5660 5659 5659 5658 5659 5659 5659 5659 5659 5660 5661 5662 5663 5664 5666 5667 5669 5671 5674 5676 5679 5682 5685
5676 5674 5672 5670 5668 5666 5665 5663 5661 5659 5657 5656 5655 5653 5652 5651 5651 5650 5650 5650 5650 5650 5650 5651 5651 5652 5652 5653 5654 5655 5657 5659 5661 5663 5665 5668 5671 5673
5671 5669 5666 5664 5662 5660 5658 5656 5654 5652 5650 5649 5647 5645 5644 5643 5643 5642 5642 5642 5642 5642 5641 5641 5642 5642 5643 5643 5644 5645 5646 5648 5650 5652 5655 5657 5660 5662
5666 5663 5661 5659 5656 5654 5652 5650 5647 5645 5643 5641 5640 5638 5637 5636 5635 5634 5634 5633 5633 5633 5633 5633 5633 5633 5634 5634 5634 5635 5636 5637 5640 5642 5644 5646 5648 5651
5661 5658 5655 5653 5650 5647 5645 5643 5640 5638 5636 5634 5632 5630 5629 5628 5627 5626 5626 5626 5625 5625 5625 5624 5624 5623 5624 5625 5625 5626 5626 5628 5630 5632 5634 5636 5638 5640
5656 5653 5650 5647 5644 5641 5639 5636 5634 5631 5629 5627 5625 5623 5622 5621 5620 5619 5618 5617 5617 5617 5616 5615 5615 5615 5615 5615 5616 5617 5617 5618 5620 5622 5624 5626 5627 5629
5651 5648 5644 5641 5638 5635 5633 5630 5627 5625 5623 5621 5619 5617 5615 5614 5613 5612 5611 5610 5609 5608 5608 5607 5607 5606 5606 5607 5607 5608 5609 5610 5611 5612 5614 5616 5617 5618
5646 5643 5639 5636 5633 5630 5627 5624 5621 5619 5617 5615 5613 5611 5609 5608 5606 5605 5604 5603 5602 5602 5601 5600 5599 5599 5598 5598 5599 5599 5600 5601 5602 5603 5604 5606 5607 5608
5641 5638 5634 5631 5627 5624 5621 5618 5616 5614 5611 5609 5607 5605 5603 5601 5600 5599 5598 5596 5596 5595 5594 5593 5592 5591 5591 5591 5591 5591 5591 5592 5593 5594 5595 5596 5597 5598
5636 5633 5629 5626 5623 5620 5617 5614 5611 5609 5606 5604 5601 5599 5597 5596 5594 5593 5592 5591 5590 5589 5588 5587 5585 5585 5585 5584 5584 5584 5583 5584 5584 5584 5585 5586 5587 5588
5631 5628 5625 5621 5618 5615 5612 5609 5606 5604 5601 5599 5597 5594 5592 5590 5589 5587 5586 5585 5584 5583 5581 5580 5579 5578 5578 5578 5578 5576 5576 5576 5576 5576 5576 5577 5578 5579
5626 5623 5620 5616 5613 5610 5607 5604 5602 5599 5597 5594 5592 5589 5587 5585 5584 5582 5580 5579 5578 5577 5576 5575 5574 5572 5571 5571 5571 5570 5569 5568 5568 5568 5568 5568 5569 5569
5622 5619 5615 5612 5609 5606 5603 5600 5597 5594 5592 5589 5587 5585 5583 5580 5579 5577 5575 5573 5572 5571 5570 5569 5568 5566 5565 5564 5564 5564 5562 5561 5560 5560 5560 5560 5561 5561
5618 5615 5611 5608 5605 5601 5598 5595 5592 5590 5587 5585 5582 5580 5578 5576 5574 5572 5570 5569 5567 5566 5564 5563 5562 5560 5559 5558 5558 5557 5556 5555 5554 5553 5552 5553 5553 5554
5615 5611 5607 5604 5601 5597 5594 5591 5588 5585 5583 5580 5578 5575 5573 5571 5569 5567 5565 5564 5562 5561 5559 5558 5556 5555 5554 5553 5552 5551 5551 5550 5548 5548 5547 5546 5546 5546